Powrót do katalogu

FENGYUN 1C DEB

AktywnySSO
NORAD 31035·DEBRIS·🇨🇳 China

Wystrzelony May 10, 1999 z Taiyuan Satellite Launch Center

Loading…

Następne Przeloty (najbliższe 24 godziny)

TLE

ŚwieżeSource: Space-Track

Epoka: Sep 14, 2026, 14:20 UTC

1 31035U 99025BED 26257.59729376  .00004962  00000-0  98891-3 0  9996
2 31035  98.6721  22.0779 0174014 107.3590 319.6757 14.53272681 12219

Śledź FENGYUN 1C DEB w czasie rzeczywistym z AllMySat

Download on the App Store